This is the latest recevied weather packets stored in our database for station/object AE5HO. If no packets are shown the sender has not sent any weather packets the latest 10 day(s).
| Time | Temp. | Humidity | Pressure | Rain* | Wind** | Luminosity | Snow |
|---|---|---|---|---|---|---|---|
| 1787990751 | 27.78° C | 68% | 1017.2 hPa | 0 mm | - | 0 W/m² | - |
| 1787990446 | 27.78° C | 69% | 1016.9 hPa | 0 mm | - | 0 W/m² | - |
| 1787990140 | 28.33° C | 69% | 1017.2 hPa | 0 mm | - | 0 W/m² | - |
| 1787989839 | 28.33° C | 67% | 1017 hPa | 0 mm | - | 0 W/m² | - |
| 1787989535 | 28.33° C | 68% | 1017.2 hPa | 0 mm | - | 0 W/m² | - |
| 1787989233 | 28.33° C | 66% | 1016.9 hPa | 0 mm | - | 0 W/m² | - |
| 1787988628 | 28.33° C | 65% | 1017.2 hPa | 0 mm | - | 0 W/m² | - |
| 1787988325 | 28.89° C | 64% | 1017.1 hPa | 0 mm | - | 0 W/m² | - |
| 1787988024 | 28.89° C | 64% | 1017.3 hPa | 0 mm | - | 0 W/m² | - |
| 1787987720 | 28.89° C | 64% | 1017.2 hPa | 0 mm | - | 0 W/m² | - |
| 1787987419 | 28.89° C | 62% | 1017.2 hPa | 0 mm | - | 0 W/m² | - |
| 1787987114 | 29.44° C | 63% | 1017.2 hPa | 0 mm | - | 0 W/m² | - |
| 1787986809 | 29.44° C | 61% | 1016.9 hPa | 0 mm | - | 0 W/m² | - |
| 1787986508 | 29.44° C | 61% | 1017.4 hPa | 0 mm | - | 0 W/m² | - |
| 1787986208 | 29.44° C | 61% | 1017 hPa | 0 mm | - | 0 W/m² | - |
| 1787985902 | 29.44° C | 63% | 1017 hPa | 0 mm | - | 0 W/m² | - |
| 1787985602 | 29.44° C | 59% | 1017 hPa | 0 mm | - | 0 W/m² | - |
| 1787985297 | 29.44° C | 60% | 1017.3 hPa | 0 mm | - | 0 W/m² | - |
| 1787984996 | 29.44° C | 61% | 1017.2 hPa | 0 mm | - | 0 W/m² | - |
| 1787984691 | 29.44° C | 58% | 1017.3 hPa | 0 mm | - | 0 W/m² | - |
| 1787984386 | 30° C | 63% | 1017.1 hPa | 0 mm | - | 0 W/m² | - |
| 1787984085 | 30° C | 63% | 1017.4 hPa | 0 mm | - | 0 W/m² | - |
| 1787983780 | 30.56° C | 56% | 1017.2 hPa | 0 mm | - | 0 W/m² | - |
| 1787983479 | 30.56° C | 55% | 1017.3 hPa | 0 mm | - | 0 W/m² | - |
| 1787983174 | 31.11° C | 51% | 1017.1 hPa | 0 mm | - | 0 W/m² | - |
* Rain latest hour (hover to see other rain measurements)
** Current wind speed in m/s (hover to see current wind gust speed)